BRO-4 (49066 NORAD) Tracking and Keplerian Element Data

This shows tracking and keplerian element data for the satellite.

Feedback or suggestion? Click here.




ElementValue
Catalog49066
NameBRO-4
Epoch Orbit498
Epoch Day262.20056006
Epoch Year2021
RAAN335.4149
Inclination97.5565
Eccentricity0.0031376
Argument of Perigee131.2686
Mean Anonmoly319.4634
Mean Motion15.08179997
Decay Rate1.094E-05
L11 49066U 21073A 21262.20056006 .00001094 00000-0 74084-4 0 9991
L22 49066 97.5565 335.4149 0031376 131.2686 319.4634 15.08179997 4987

Live tracking and technical data element details for BRO-4 (NORAD 49066). BRO-4 can be tracked NOW for your location showing map with azimuth and elevation plus other details from your city location.

Track the satellite on the map from your city or location and see movement details for azimuth, elevation, latitude, longitude, range, height, and movement on the map or in text.







IsCatalogInMostPopularTable: catalog: 49066, numindb: 4
Update: records affected: 1



GetName: 49066 BRO-4

Hit Count: updated at: Fri, 24 Sep 2021 19:07:38 GMT